W4SNA-3 Weather Reports


Display with metric or nautical units.
time (UTC)temp
F
wind
direction
speed
MPH
gust
MPH
rain 1hr
in
rain 24hr
in
rain mn
in
humidity
%
barometer
mb
20260507012615 60 0 0.0 2.0 0.00 0.01 0.01 97 1011.2
20260507012115 60 0 0.0 2.0 0.00 0.01 0.01 97 1011.0
20260507011615 60 0 0.0 2.0 0.00 0.01 0.01 97 1010.7
20260507011115 60 0 0.0 1.0 0.00 0.01 0.01 96 1010.6
20260507010615 60 0 0.0 1.0 0.00 0.01 0.01 96 1010.9
20260507010319 60 0 0.0 1.0 0.00 0.01 0.01 96 1010.9
20260507010158 60 0 0.0 1.0 0.00 0.01 0.01 96 1010.9
20260507005626 60 0 0.0 0.0 0.00 0.01 0.01 96 1010.6
20260507005116 60 0 0.0 1.0 0.00 0.01 0.01 96 1010.9
20260507004617 60 0 0.0 2.0 0.00 0.01 0.01 96 1011.8
20260507004115 60 0 0.0 2.0 0.00 0.01 0.01 96 1011.8
20260507003619 60 0 0.0 0.0 0.00 0.01 0.01 96 1011.7
20260507003116 60 0 0.0 0.0 0.00 0.01 0.01 96 1011.6
20260507002615 60 0 0.0 1.0 0.00 0.01 0.01 96 1011.4
20260507002115 60 0 0.0 1.0 0.00 0.01 0.01 96 1011.4
20260507001615 60 0 0.0 1.0 0.00 0.01 0.01 96 1011.5
20260507001121 60 0 0.0 0.0 0.00 0.01 0.01 96 1011.6
20260507000615 60 0 0.0 1.0 0.00 0.01 0.01 96 1011.6
20260507000134 60 0 0.0 1.0 0.00 0.01 0.01 95 1011.6
20260506235615 60 0 0.0 1.0 0.00 0.01 0.01 95 1011.5
20260506235115 60 0 0.0 1.0 0.00 0.01 0.01 95 1011.4
20260506234615 60 0 0.0 1.0 0.00 0.01 0.01 95 1011.5
20260506234115 60 0 0.0 1.0 0.00 0.01 0.01 95 1011.3
20260506233628 60 0 0.0 1.0 0.00 0.01 0.01 95 1011.1
20260506233115 60 0 0.0 1.0 0.00 0.01 0.01 95 1011.3
20260506232214 60 0 0.0 3.0 0.00 0.01 0.01 95 1011.4
20260506231732 60 0 0.0 1.0 0.00 0.01 0.01 95 1011.2
20260506231214 60 0 0.0 0.0 0.00 0.01 0.01 95 1011.2
20260506230714 60 0 0.0 0.0 0.00 0.01 0.01 95 1011.0
20260506230218 60 0 0.0 2.0 0.00 0.01 0.01 95 1011.2
20260506225714 61 0 0.0 2.0 0.00 0.01 0.01 94 1011.3
20260506225215 61 0 0.0 1.0 0.00 0.01 0.01 94 1011.3
20260506224723 61 0 0.0 1.0 0.00 0.01 0.01 94 1011.3
20260506224214 61 0 0.0 1.0 0.00 0.01 0.01 94 1011.4
20260506223742 61 0 0.0 2.0 0.00 0.01 0.01 94 1011.4
20260506223216 61 0 0.0 2.0 0.00 0.01 0.01 94 1011.5
20260506222714 61 0 0.0 2.0 0.00 0.01 0.01 94 1011.7
20260506222219 61 0 0.0 2.0 0.00 0.01 0.01 94 1011.8
20260506221714 61 0 0.0 5.0 0.00 0.01 0.01 94 1011.9
20260506221215 61 0 0.0 5.0 0.00 0.01 0.01 93 1012.1
20260506220809 61 0 0.0 1.0 0.00 0.01 0.01 93 1011.9
20260506220214 61 0 0.0 1.0 0.00 0.01 0.01 93 1011.9
20260506215714 61 0 0.0 1.0 0.00 0.01 0.01 93 1012.0
20260506215214 62 0 0.0 1.0 0.00 0.01 0.01 93 1011.9
20260506214510 62 0 0.0 1.0 0.00 0.01 0.01 93 1011.6
20260506214010 62 0 0.0 1.0 0.00 0.01 0.01 94 1011.2
20260506213511 61 0 0.0 1.0 0.00 0.01 0.01 94 1011.3
20260506213010 61 0 0.0 1.0 0.00 0.01 0.01 93 1011.3
20260506212510 61 0 0.0 2.0 0.00 0.01 0.01 94 1011.5
20260506212010 61 0 0.0 2.0 0.00 0.01 0.01 94 1011.2
20260506211510 61 0 0.0 1.0 0.00 0.01 0.01 94 1011.1
20260506211017 61 0 0.0 1.0 0.00 0.01 0.01 94 1010.9
20260506210510 61 0 0.0 4.0 0.00 0.01 0.01 94 1011.0
20260506210010 61 0 0.0 4.0 0.00 0.01 0.01 94 1011.0
20260506205513 61 0 0.0 3.0 0.00 0.01 0.01 94 1011.0
20260506205010 61 0 0.0 3.0 0.00 0.01 0.01 94 1010.9
20260506204515 60 0 0.0 3.0 0.00 0.01 0.01 94 1011.1
20260506204019 60 0 0.0 2.0 0.00 0.01 0.01 93 1011.2
20260506203510 60 0 0.0 3.0 0.00 0.01 0.01 93 1011.4
20260506203010 60 0 0.0 3.0 0.00 0.01 0.01 93 1011.2
20260506202510 60 0 0.0 0.0 0.00 0.01 0.01 94 1011.2
20260506202010 60 0 0.0 1.0 0.00 0.01 0.01 94 1011.3
20260506201510 60 0 0.0 1.0 0.00 0.01 0.01 94 1011.4
20260506201010 60 0 0.0 1.0 0.00 0.01 0.01 94 1011.4
20260506200510 60 0 0.0 1.0 0.00 0.01 0.01 94 1011.4
20260506200010 60 0 0.0 1.0 0.00 0.01 0.01 94 1011.4
20260506195510 60 0 0.0 2.0 0.00 0.01 0.01 94 1011.3
20260506195010 60 0 0.0 2.0 0.00 0.01 0.01 95 1011.4
20260506194510 59 0 0.0 3.0 0.00 0.01 0.01 94 1011.2
20260506194010 59 0 0.0 4.0 0.00 0.01 0.01 94 1011.2
20260506193510 59 0 0.0 4.0 0.00 0.01 0.01 95 1011.1
20260506193010 59 0 0.0 3.0 0.00 0.01 0.01 95 1011.1
20260506192518 59 0 0.0 3.0 0.00 0.01 0.01 96 1011.1
20260506192044 59 0 0.0 1.0 0.00 0.01 0.01 96 1011.4
20260506191510 59 0 0.0 1.0 0.00 0.01 0.01 97 1011.3
20260506191010 58 0 0.0 1.0 0.00 0.01 0.01 96 1011.0
20260506190510 58 0 0.0 1.0 0.00 0.01 0.01 96 1011.0
20260506190010 58 0 0.0 0.0 0.00 0.01 0.01 96 1011.0
20260506185023 58 0 0.0 1.0 0.00 0.01 0.01 96 1011.2
20260506184231 57 0 0.0 4.0 0.00 0.01 0.01 96 1011.0
20260506183734 57 0 0.0 4.0 0.00 0.01 0.01 96 1011.0
20260506183231 57 0 0.0 0.0 0.00 0.01 0.01 96 1011.1
20260506182733 56 0 0.0 1.0 0.00 0.01 0.01 96 1011.3
20260506182238 57 0 0.0 1.0 0.00 0.01 0.01 96 1011.4
20260506181731 56 0 0.0 1.0 0.00 0.01 0.01 95 1011.5
20260506181238 56 0 0.0 1.0 0.00 0.01 0.01 95 1011.5
20260506180731 56 0 0.0 1.0 0.00 0.01 0.01 95 1011.3
20260506180236 56 0 0.0 1.0 0.00 0.01 0.01 95 1011.0
20260506175741 56 0 0.0 1.0 0.00 0.01 0.01 95 1011.2
20260506175232 56 0 0.0 1.0 0.00 0.01 0.01 95 1011.2
20260506174734 56 0 0.0 2.0 0.00 0.01 0.01 95 1011.5
20260506174231 56 0 0.0 2.0 0.00 0.01 0.01 95 1011.5
20260506173731 56 0 0.0 2.0 0.00 0.01 0.01 95 1011.5
20260506173231 56 0 0.0 3.0 0.00 0.01 0.01 95 1011.7
20260506172731 56 0 0.0 3.0 0.00 0.01 0.01 95 1012.0
20260506172233 56 0 0.0 1.0 0.00 0.01 0.01 94 1012.3
20260506171736 56 0 0.0 1.0 0.00 0.01 0.01 94 1012.5
20260506171231 56 0 0.0 3.0 0.00 0.01 0.01 94 1012.7
20260506170731 56 0 0.0 3.0 0.00 0.01 0.01 94 1012.9
20260506170231 56 0 0.0 2.0 0.00 0.01 0.01 94 1012.9
20260506165731 56 0 0.0 3.0 0.00 0.01 0.01 94 1013.0
20260506165231 56 0 0.0 3.0 0.00 0.01 0.01 94 1012.9
20260506164731 56 0 0.0 4.0 0.00 0.01 0.01 93 1012.9
20260506164231 56 0 0.0 5.0 0.00 0.01 0.01 93 1012.9
20260506163732 56 0 0.0 5.0 0.00 0.01 0.01 93 1012.8
20260506163231 56 0 0.0 1.0 0.00 0.01 0.01 93 1012.8
20260506162731 56 0 0.0 2.0 0.00 0.01 0.01 93 1012.8
20260506162231 56 0 0.0 2.0 0.00 0.01 0.01 93 1012.8
20260506161731 56 0 0.0 2.0 0.00 0.01 0.01 93 1012.7
20260506161231 56 0 0.0 2.0 0.00 0.01 0.01 93 1012.7
20260506160749 56 0 0.0 2.0 0.00 0.01 0.01 93 1012.6
20260506160231 56 0 0.0 3.0 0.00 0.01 0.01 93 1012.2
20260506155731 56 0 0.0 3.0 0.00 0.01 0.01 93 1012.0
20260506155231 56 0 0.0 1.0 0.00 0.01 0.01 93 1012.0
20260506154731 56 0 0.0 2.0 0.00 0.01 0.01 93 1012.0
20260506154236 56 0 0.0 2.0 0.00 0.01 0.01 93 1012.0
20260506153739 56 0 0.0 1.0 0.00 0.01 0.01 93 1012.0
20260506153240 56 0 0.0 2.0 0.00 0.01 0.01 93 1011.7
20260506152731 56 0 0.0 2.0 0.00 0.01 0.01 93 1011.6
20260506152231 56 0 0.0 2.0 0.00 0.01 0.01 94 1011.7
20260506151734 56 0 0.0 1.0 0.00 0.01 0.01 94 1011.5
20260506150834 56 0 0.0 1.0 0.00 0.01 0.01 95 1011.8
20260506150335 56 0 0.0 2.0 0.00 0.01 0.01 95 1011.8
20260506145836 56 0 0.0 2.0 0.00 0.01 0.01 96 1011.8
20260506145044 55 0 0.0 5.0 0.00 0.01 0.01 96 1011.7
20260506144544 55 0 0.0 5.0 0.00 0.01 0.01 96 1011.6
20260506143929 55 0 0.0 2.0 0.00 0.01 0.01 96 1011.9
20260506143430 54 0 0.0 2.0 0.00 0.01 0.01 97 1011.9
20260506142930 54 0 0.0 4.0 0.00 0.01 0.01 96 1011.5
20260506142431 54 248 1.0 4.0 0.00 0.01 0.01 97 1011.6
20260506141930 54 0 0.0 3.0 0.00 0.01 0.01 96 1011.7
20260506141431 53 0 0.0 3.0 0.00 0.01 0.01 96 1011.4
20260506140930 53 0 0.0 4.0 0.00 0.01 0.01 97 1011.4
20260506140431 53 0 0.0 5.0 0.00 0.01 0.01 96 1011.5
20260506135929 53 0 0.0 5.0 0.00 0.01 0.01 96 1011.6
20260506135448 53 0 0.0 3.0 0.01 0.01 0.01 96 1011.5
20260506134931 53 0 0.0 3.0 0.01 0.01 0.01 96 1011.5
20260506134041 53 0 0.0 3.0 0.01 0.01 0.01 96 1011.3
20260506133539 53 0 0.0 3.0 0.01 0.01 0.01 96 1011.3
20260506133039 53 0 0.0 3.0 0.01 0.01 0.01 96 1011.3
20260506132539 53 0 0.0 3.0 0.01 0.01 0.01 96 1011.3
20260506132039 53 0 0.0 2.0 0.01 0.01 0.01 96 1011.3
20260506131542 53 0 0.0 3.0 0.01 0.01 0.01 95 1011.3
20260506131043 53 0 0.0 3.0 0.01 0.01 0.01 95 1011.2
20260506130544 53 0 0.0 2.0 0.01 0.01 0.01 95 1011.3
20260506130039 53 0 0.0 1.0 0.01 0.01 0.01 95 1011.3
20260506125540 53 0 0.0 1.0 0.00 0.00 0.00 95 1011.5
20260506125044 53 0 0.0 1.0 0.00 0.00 0.00 95 1011.4
20260506124548 52 0 0.0 1.0 0.00 0.00 0.00 95 1011.3
20260506124041 52 0 0.0 1.0 0.00 0.00 0.00 95 1011.1
20260506123544 52 0 0.0 1.0 0.00 0.00 0.00 95 1011.2
20260506123039 52 0 0.0 2.0 0.00 0.00 0.00 95 1011.2
20260506122541 52 0 0.0 2.0 0.00 0.00 0.00 95 1011.3
20260506122039 52 0 0.0 2.0 0.00 0.00 0.00 95 1011.7
20260506121540 52 0 0.0 2.0 0.00 0.00 0.00 95 1011.5
20260506121040 52 0 0.0 1.0 0.00 0.00 0.00 95 1011.5
20260506120539 52 0 0.0 2.0 0.00 0.00 0.00 95 1011.4
20260506120039 52 0 0.0 2.0 0.00 0.00 0.00 95 1011.4
20260506115539 52 0 0.0 4.0 0.00 0.00 0.00 95 1011.3
20260506115039 52 0 0.0 4.0 0.00 0.00 0.00 95 1011.3
20260506114539 52 0 0.0 1.0 0.00 0.00 0.00 94 1011.4
20260506114039 52 0 0.0 2.0 0.00 0.00 0.00 94 1011.2
20260506113542 52 0 0.0 2.0 0.00 0.00 0.00 94 1011.2
20260506113039 52 0 0.0 1.0 0.00 0.00 0.00 94 1010.9
20260506112542 52 0 0.0 2.0 0.00 0.00 0.00 94 1010.9
20260506112039 52 0 0.0 2.0 0.00 0.00 0.00 94 1010.5
20260506111543 52 0 0.0 1.0 0.00 0.00 0.00 94 1010.5
20260506111045 52 0 0.0 1.0 0.00 0.00 0.00 94 1010.6
20260506110539 52 0 0.0 1.0 0.00 0.00 0.00 94 1010.8
20260506110039 52 0 0.0 1.0 0.00 0.00 0.00 94 1010.6
20260506105540 52 0 0.0 1.0 0.00 0.00 0.00 94 1010.7
20260506105039 52 0 0.0 1.0 0.00 0.00 0.00 93 1010.5
20260506104543 52 0 0.0 0.0 0.00 0.00 0.00 93 1010.6
20260506104040 52 0 0.0 0.0 0.00 0.00 0.00 93 1010.6
20260506103545 52 0 0.0 0.0 0.00 0.00 0.00 93 1010.4
20260506103045 52 0 0.0 0.0 0.00 0.00 0.00 93 1010.3
20260506102542 52 0 0.0 1.0 0.00 0.00 0.00 93 1010.1
20260506102038 52 0 0.0 1.0 0.00 0.00 0.00 93 1010.2
20260506101540 52 0 0.0 1.0 0.00 0.00 0.00 93 1010.4
20260506101147 52 0 0.0 2.0 0.00 0.00 0.00 93 1010.4
20260506101041 52 0 0.0 2.0 0.00 0.00 0.00 93 1010.4
20260506100538 52 0 0.0 2.0 0.00 0.00 0.00 93 1010.5
20260506100039 52 0 0.0 1.0 0.00 0.00 0.00 92 1010.2
20260506095539 52 0 0.0 1.0 0.00 0.00 0.00 92 1010.4
20260506095038 52 0 0.0 1.0 0.00 0.00 0.00 92 1010.4
20260506094539 52 0 0.0 2.0 0.00 0.00 0.00 92 1010.5
20260506094040 52 0 0.0 2.0 0.00 0.00 0.00 91 1010.3
20260506093541 52 0 0.0 2.0 0.00 0.00 0.00 91 1010.4
20260506093042 52 0 0.0 2.0 0.00 0.00 0.00 91 1010.3
20260506092545 52 0 0.0 1.0 0.00 0.00 0.00 91 1010.4
20260506092038 52 0 0.0 1.0 0.00 0.00 0.00 90 1010.7
20260506091539 52 0 0.0 1.0 0.00 0.00 0.00 90 1010.6
20260506091044 52 0 0.0 1.0 0.00 0.00 0.00 90 1010.7
20260506090538 52 0 0.0 1.0 0.00 0.00 0.00 90 1010.7
20260506090045 52 0 0.0 1.0 0.00 0.00 0.00 90 1010.7
20260506085540 52 0 0.0 1.0 0.00 0.00 0.00 89 1010.7
20260506085038 52 0 0.0 2.0 0.00 0.00 0.00 90 1010.7
20260506084539 52 0 0.0 2.0 0.00 0.00 0.00 89 1010.9
20260506084038 52 0 0.0 1.0 0.00 0.00 0.00 89 1010.9
20260506083541 52 0 0.0 3.0 0.00 0.00 0.00 89 1010.9
20260506083038 52 0 0.0 3.0 0.00 0.00 0.00 89 1011.1
20260506082541 52 0 0.0 1.0 0.00 0.00 0.00 88 1011.1
20260506082038 52 0 0.0 0.0 0.00 0.00 0.00 87 1011.0
20260506081539 52 0 0.0 1.0 0.00 0.00 0.00 87 1011.0
20260506081038 52 0 0.0 1.0 0.00 0.00 0.00 86 1011.0
20260506080539 52 0 0.0 1.0 0.00 0.00 0.00 86 1011.1
20260506073038 53 0 0.0 3.0 0.00 0.00 0.00 85 1011.5
20260506072539 53 0 0.0 2.0 0.00 0.00 0.00 84 1011.4
20260506072038 52 0 0.0 1.0 0.00 0.00 0.00 84 1011.5
20260506071543 52 0 0.0 1.0 0.00 0.00 0.00 84 1011.3
20260506071038 52 0 0.0 1.0 0.00 0.00 0.00 83 1011.3
20260506070538 53 0 0.0 1.0 0.00 0.00 0.00 83 1011.3
20260506062045 54 0 0.0 2.0 0.00 0.00 0.00 78 1011.8
20260506061259 54 0 0.0 3.0 0.00 0.00 0.00 78 1011.9
20260506060758 54 0 0.0 1.0 0.00 0.00 0.00 77 1011.9
20260506060256 54 0 0.0 2.0 0.00 0.00 0.00 76 1011.9
20260506051133 55 0 0.0 1.0 0.00 0.00 0.00 71 1012.0
20260506050619 56 0 0.0 1.0 0.00 0.00 0.00 70 1011.9
20260506050119 56 0 0.0 1.0 0.00 0.00 0.00 69 1011.9
20260506045132 57 0 0.0 2.0 0.00 0.00 0.00 68 1012.1
20260506044619 57 0 0.0 2.0 0.00 0.00 0.00 68 1012.0
20260506044128 57 0 0.0 1.0 0.00 0.00 0.00 68 1012.2
20260506043633 57 0 0.0 1.0 0.00 0.00 0.00 68 1012.1
20260506043119 57 0 0.0 1.0 0.00 0.00 0.00 68 1012.2
20260506042619 57 0 0.0 1.0 0.00 0.00 0.00 68 1012.2
20260506042119 57 0 0.0 0.0 0.00 0.00 0.00 68 1012.2
20260506041619 57 0 0.0 3.0 0.00 0.00 0.00 68 1012.2
20260506041119 57 0 0.0 3.0 0.00 0.00 0.00 67 1012.2
20260506040619 57 0 0.0 1.0 0.00 0.00 0.00 67 1012.3
20260506035737 58 0 0.0 2.0 0.00 0.00 0.00 66 1012.4
20260506035237 58 0 0.0 2.0 0.00 0.00 0.00 66 1012.4
20260506034737 58 0 0.0 2.0 0.00 0.00 0.00 66 1012.4
20260506034239 58 0 0.0 3.0 0.00 0.00 0.00 66 1012.3
20260506033737 58 0 0.0 3.0 0.00 0.00 0.00 66 1012.3
20260506033237 58 0 0.0 3.0 0.00 0.00 0.00 66 1012.2
20260506032744 58 0 0.0 3.0 0.00 0.00 0.00 65 1012.4
20260506032237 58 0 0.0 3.0 0.00 0.00 0.00 65 1012.3
20260506031737 58 0 0.0 3.0 0.00 0.00 0.00 65 1012.2
20260506031237 58 0 0.0 2.0 0.00 0.00 0.00 64 1012.1
20260506030743 58 0 0.0 2.0 0.00 0.00 0.00 64 1012.3
20260506030237 58 0 0.0 2.0 0.00 0.00 0.00 64 1012.3
20260506025737 59 0 0.0 4.0 0.00 0.00 0.00 64 1012.3
20260506025245 59 0 0.0 4.0 0.00 0.00 0.00 63 1012.3
20260506024737 59 0 0.0 4.0 0.00 0.00 0.00 64 1012.5
20260506024241 59 0 0.0 2.0 0.00 0.00 0.00 63 1012.6
20260506023737 59 0 0.0 2.0 0.00 0.00 0.00 63 1012.7
20260506023237 59 0 0.0 2.0 0.00 0.00 0.00 63 1012.8
20260506022737 59 0 0.0 2.0 0.00 0.00 0.00 63 1012.8
20260506022242 59 0 0.0 2.0 0.00 0.00 0.00 63 1012.5
20260506021737 58 0 0.0 2.0 0.00 0.00 0.00 62 1012.5
20260506021240 58 0 0.0 1.0 0.00 0.00 0.00 62 1012.5
20260506020444 59 0 0.0 2.0 0.00 0.00 0.00 62 1012.6
20260506015944 59 0 0.0 0.0 0.00 0.00 0.00 61 1012.7
20260506014944 59 0 0.0 4.0 0.00 0.00 0.00 60 1012.5
20260506014448 60 0 0.0 3.0 0.00 0.00 0.00 60 1012.6
20260506013944 60 0 0.0 3.0 0.00 0.00 0.00 59 1012.5
20260506013445 60 0 0.0 3.0 0.00 0.00 0.00 59 1012.5
20260506012944 60 0 0.0 3.0 0.00 0.00 0.00 59 1012.5